CXA6889 ZSQD-ZYTX

Flight info

Callsign CXA6889
Flight time N/A
Altitude 24600
Route TEKAM W172 IGDEG W173 NIXEP W8 DOBGA W202 UDETI A588 TOSID
Aircraft B38M/M-SDE1FGHILORVWXY/HB1

Departure

Time N/A
Airport Qingdao Jiaodong International Airport (ZSQD)

Arrival

Time 2026-05-06 13:30
Airport Shenyang Taoxian International Airport (ZYTX)
Time Latitude Longitude Altitude Speed Heading
2026-05-06 12:44 38.26262 121.02698 24592 ft 456 kts 62°
2026-05-06 12:45 38.27587 121.06373 24582 ft 457 kts 63°
2026-05-06 12:45 38.28903 121.10065 24586 ft 458 kts 64°
2026-05-06 12:45 38.31073 121.16264 24584 ft 458 kts 64°
2026-05-06 12:46 38.32362 121.19973 24585 ft 458 kts 64°
2026-05-06 12:46 38.33631 121.23631 24582 ft 458 kts 64°
2026-05-06 12:46 38.34915 121.27340 24583 ft 458 kts 64°
2026-05-06 12:46 38.36201 121.31058 24581 ft 458 kts 64°
2026-05-06 12:47 38.37483 121.34770 24584 ft 458 kts 64°
2026-05-06 12:47 38.38766 121.38486 24580 ft 458 kts 64°
2026-05-06 12:47 38.40046 121.42202 24585 ft 458 kts 64°
2026-05-06 12:47 38.41361 121.45893 24580 ft 456 kts 59°
2026-05-06 12:48 38.42831 121.49477 24588 ft 456 kts 59°
2026-05-06 12:48 38.44290 121.53078 24584 ft 457 kts 60°
2026-05-06 12:48 38.45736 121.56689 24585 ft 457 kts 60°
2026-05-06 12:48 38.47177 121.60302 24586 ft 458 kts 60°
2026-05-06 12:49 38.48617 121.63922 24585 ft 458 kts 60°
2026-05-06 12:49 38.50059 121.67546 24588 ft 458 kts 60°
2026-05-06 12:49 38.51497 121.71170 24586 ft 458 kts 60°
2026-05-06 12:49 38.52935 121.74794 24587 ft 458 kts 60°
2026-05-06 12:50 38.54375 121.78429 24602 ft 459 kts 60°
2026-05-06 12:50 38.55815 121.82067 25094 ft 459 kts 60°
2026-05-06 12:50 38.57261 121.85727 25449 ft 465 kts 60°
2026-05-06 12:50 38.58722 121.89427 25831 ft 468 kts 60°
2026-05-06 12:51 38.60191 121.93155 26237 ft 471 kts 60°
2026-05-06 12:51 38.61670 121.96911 26607 ft 475 kts 60°
2026-05-06 12:51 38.63160 122.00701 27014 ft 478 kts 60°
2026-05-06 12:51 38.64656 122.04508 27407 ft 481 kts 60°
2026-05-06 12:52 38.66160 122.08343 27800 ft 484 kts 60°
2026-05-06 12:52 38.67698 122.12184 28181 ft 485 kts 56°
2026-05-06 12:52 38.69687 122.15619 28553 ft 476 kts 38°
2026-05-06 12:52 38.72249 122.18210 28928 ft 466 kts 25°
2026-05-06 12:53 38.74987 122.20469 29041 ft 470 kts 25°
2026-05-06 12:53 38.80503 122.24921 29010 ft 468 kts 24°
2026-05-06 12:54 38.86044 122.29314 29015 ft 468 kts 24°
2026-05-06 12:54 38.91583 122.33701 29013 ft 468 kts 24°
2026-05-06 12:55 38.97094 122.38071 29011 ft 468 kts 24°
2026-05-06 12:55 39.02637 122.42476 29012 ft 468 kts 24°
2026-05-06 12:56 39.08178 122.46888 29016 ft 469 kts 24°
2026-05-06 12:56 39.13724 122.51312 29020 ft 469 kts 24°
2026-05-06 12:57 39.19269 122.55742 29021 ft 469 kts 24°
2026-05-06 12:57 39.24808 122.60176 29021 ft 469 kts 24°
2026-05-06 12:58 39.30462 122.64263 29017 ft 465 kts 21°
2026-05-06 12:58 39.36130 122.68291 29021 ft 465 kts 21°
2026-05-06 12:59 39.41793 122.72340 29025 ft 465 kts 21°
2026-05-06 12:59 39.47451 122.76394 29024 ft 465 kts 21°
2026-05-06 13:00 39.53104 122.80453 29023 ft 464 kts 21°
2026-05-06 13:00 39.58750 122.84514 29030 ft 464 kts 21°
2026-05-06 13:01 39.64386 122.88576 29027 ft 463 kts 21°
2026-05-06 13:01 39.69408 122.92201 29032 ft 463 kts 21°
2026-05-06 13:02 39.75034 122.96270 29029 ft 463 kts 21°
2026-05-06 13:02 39.80659 123.00345 29016 ft 464 kts 21°
2026-05-06 13:03 39.86292 123.04435 29025 ft 463 kts 21°
2026-05-06 13:03 39.91916 123.08525 29043 ft 463 kts 21°
2026-05-06 13:04 39.97537 123.12622 29040 ft 463 kts 21°
2026-05-06 13:04 40.03165 123.16729 29036 ft 463 kts 21°
2026-05-06 13:05 40.08809 123.20791 29045 ft 464 kts 21°
2026-05-06 13:05 40.14462 123.24863 28944 ft 464 kts 21°
2026-05-06 13:05 40.17283 123.26899 28644 ft 462 kts 21°
2026-05-06 13:06 40.20095 123.28930 28350 ft 461 kts 21°
2026-05-06 13:06 40.22900 123.30958 28069 ft 460 kts 21°
2026-05-06 13:06 40.25694 123.32980 27783 ft 459 kts 21°
2026-05-06 13:06 40.28482 123.34999 27501 ft 458 kts 21°
2026-05-06 13:07 40.31266 123.37017 27229 ft 457 kts 21°
2026-05-06 13:07 40.34039 123.39029 26947 ft 455 kts 22°
2026-05-06 13:07 40.36805 123.41039 26662 ft 453 kts 22°
2026-05-06 13:07 40.39526 123.43017 26391 ft 452 kts 22°
2026-05-06 13:08 40.42302 123.45038 26123 ft 450 kts 22°
2026-05-06 13:08 40.45035 123.47027 25858 ft 448 kts 22°
2026-05-06 13:08 40.47753 123.49010 25588 ft 446 kts 22°
2026-05-06 13:08 40.50463 123.50988 25326 ft 445 kts 22°
2026-05-06 13:09 40.53160 123.52958 25067 ft 443 kts 22°
2026-05-06 13:09 40.55840 123.54917 24812 ft 438 kts 22°
2026-05-06 13:09 40.58412 123.56892 24601 ft 432 kts 30°
2026-05-06 13:09 40.60750 123.59286 24596 ft 418 kts 33°
2026-05-06 13:10 40.62992 123.61593 24621 ft 402 kts 32°
2026-05-06 13:10 40.65163 123.63828 24594 ft 394 kts 32°
2026-05-06 13:10 40.67358 123.66090 24525 ft 407 kts 33°
2026-05-06 13:10 40.69600 123.68410 24513 ft 413 kts 33°
2026-05-06 13:11 40.71872 123.70761 24356 ft 416 kts 33°
2026-05-06 13:11 40.74146 123.73118 24154 ft 415 kts 33°
2026-05-06 13:11 40.76415 123.75470 23942 ft 415 kts 33°
2026-05-06 13:11 40.78681 123.77821 23750 ft 414 kts 33°
2026-05-06 13:12 40.80942 123.80170 23543 ft 413 kts 33°
2026-05-06 13:12 40.83195 123.82510 23298 ft 412 kts 33°
2026-05-06 13:12 40.85438 123.84845 23068 ft 410 kts 33°
2026-05-06 13:12 40.87674 123.87173 22828 ft 408 kts 33°
2026-05-06 13:13 40.89903 123.89495 22445 ft 408 kts 33°
2026-05-06 13:13 40.92238 123.91577 21924 ft 402 kts 21°
2026-05-06 13:13 40.94708 123.93302 21496 ft 400 kts 22°
2026-05-06 13:13 40.97154 123.95045 21081 ft 398 kts 22°
2026-05-06 13:14 40.99585 123.96774 20669 ft 395 kts 19°
2026-05-06 13:14 41.02135 123.97858 20255 ft 377 kts 359°
2026-05-06 13:14 41.04672 123.97798 19842 ft 357 kts 342°
2026-05-06 13:14 41.07094 123.97205 19488 ft 352 kts 340°
2026-05-06 13:15 41.09481 123.96587 19117 ft 348 kts 340°
2026-05-06 13:15 41.11718 123.95618 18760 ft 327 kts 322°
2026-05-06 13:15 41.13651 123.94114 18454 ft 321 kts 322°
2026-05-06 13:15 41.15602 123.92712 18107 ft 318 kts 323°
2026-05-06 13:16 41.17558 123.91345 17625 ft 316 kts 324°
2026-05-06 13:16 41.19495 123.90012 17116 ft 312 kts 324°
2026-05-06 13:16 41.21415 123.88702 16564 ft 308 kts 324°
2026-05-06 13:16 41.23310 123.87416 16001 ft 304 kts 324°
2026-05-06 13:17 41.25189 123.86145 15443 ft 301 kts 324°
2026-05-06 13:17 41.27033 123.84901 14933 ft 294 kts 325°
2026-05-06 13:17 41.28851 123.83669 14422 ft 293 kts 325°
2026-05-06 13:17 41.30666 123.82441 13891 ft 292 kts 325°
2026-05-06 13:18 41.32474 123.81217 13337 ft 291 kts 326°
2026-05-06 13:18 41.34272 123.79999 12747 ft 289 kts 326°
2026-05-06 13:18 41.36060 123.78787 12177 ft 287 kts 326°
2026-05-06 13:18 41.37833 123.77585 11618 ft 285 kts 326°
2026-05-06 13:19 41.39445 123.76161 11089 ft 271 kts 306°
2026-05-06 13:19 41.40289 123.74043 10680 ft 254 kts 281°
2026-05-06 13:19 41.40613 123.71782 10342 ft 244 kts 278°
2026-05-06 13:19 41.40913 123.69601 10012 ft 235 kts 278°
2026-05-06 13:20 41.41192 123.67491 9701 ft 228 kts 278°
2026-05-06 13:20 41.41458 123.65428 9326 ft 223 kts 278°
2026-05-06 13:20 41.41712 123.63412 8967 ft 219 kts 278°
2026-05-06 13:20 41.41960 123.61429 8562 ft 216 kts 278°
2026-05-06 13:21 41.42203 123.59463 8165 ft 214 kts 278°
2026-05-06 13:21 41.42443 123.57513 7808 ft 214 kts 278°
2026-05-06 13:21 41.42683 123.55557 7492 ft 213 kts 278°
2026-05-06 13:21 41.42920 123.53620 7200 ft 211 kts 278°
2026-05-06 13:22 41.43112 123.51693 6923 ft 209 kts 274°
2026-05-06 13:22 41.43212 123.49763 6646 ft 208 kts 274°
2026-05-06 13:22 41.43314 123.47877 6480 ft 201 kts 274°
2026-05-06 13:22 41.43416 123.46053 6325 ft 194 kts 274°
2026-05-06 13:23 41.43516 123.44285 6153 ft 190 kts 275°
2026-05-06 13:23 41.43617 123.42520 6004 ft 191 kts 275°
2026-05-06 13:23 41.43719 123.40748 5824 ft 192 kts 275°
2026-05-06 13:23 41.43821 123.38966 5665 ft 193 kts 274°
2026-05-06 13:24 41.43983 123.37190 5484 ft 194 kts 288°
2026-05-06 13:24 41.44728 123.35716 5310 ft 195 kts 316°
2026-05-06 13:24 41.45761 123.34567 5134 ft 190 kts 318°
2026-05-06 13:24 41.46769 123.33479 4913 ft 183 kts 319°
2026-05-06 13:25 41.47760 123.32425 4617 ft 182 kts 320°
2026-05-06 13:25 41.48752 123.31379 4266 ft 182 kts 320°
2026-05-06 13:25 41.49768 123.30360 3909 ft 183 kts 329°
2026-05-06 13:25 41.50995 123.30068 3592 ft 181 kts 11°
2026-05-06 13:26 41.52106 123.30755 3406 ft 176 kts 33°
2026-05-06 13:26 41.53042 123.31781 3200 ft 178 kts 44°
2026-05-06 13:26 41.53874 123.32999 2971 ft 177 kts 49°
2026-05-06 13:26 41.54682 123.34234 2750 ft 175 kts 49°
2026-05-06 13:27 41.55456 123.35409 2526 ft 164 kts 49°
2026-05-06 13:27 41.56203 123.36538 2311 ft 161 kts 49°
2026-05-06 13:27 41.56940 123.37653 2102 ft 157 kts 48°
2026-05-06 13:27 41.57636 123.38706 1894 ft 148 kts 48°
2026-05-06 13:28 41.58307 123.39720 1697 ft 144 kts 49°
2026-05-06 13:28 41.58968 123.40719 1495 ft 143 kts 48°
2026-05-06 13:28 41.59579 123.41644 1320 ft 143 kts 48°
2026-05-06 13:28 41.60236 123.42637 1108 ft 142 kts 47°
2026-05-06 13:29 41.60890 123.43629 870 ft 143 kts 47°
2026-05-06 13:29 41.61534 123.44626 700 ft 141 kts 48°
2026-05-06 13:29 41.62184 123.45610 488 ft 141 kts 47°
2026-05-06 13:29 41.62840 123.46590 303 ft 142 kts 48°
2026-05-06 13:30 41.63478 123.47555 205 ft 128 kts 48°
2026-05-06 13:30 41.63793 123.48030 216 ft 79 kts 49°
2026-05-06 13:30 41.64106 123.48502 213 ft 38 kts 48°
2026-05-06 13:30 41.64187 123.48635 206 ft 26 kts 57°
2026-05-06 13:31 41.64254 123.48819 203 ft 10 kts 73°
2026-05-06 13:31 41.64266 123.48885 207 ft 9 kts 78°
2026-05-06 13:31 41.64276 123.48954 207 ft 4 kts 78°
2026-05-06 13:31 41.64279 123.48973 214 ft 5 kts 78°
2026-05-06 13:32 41.64283 123.48998 207 ft 2 kts 78°
2026-05-06 13:32 41.64273 123.49032 205 ft 6 kts 147°
2026-05-06 13:32 41.64220 123.49030 208 ft 8 kts 210°
2026-05-06 13:32 41.64167 123.48958 208 ft 14 kts 229°
2026-05-06 13:33 41.64095 123.48848 202 ft 18 kts 228°
2026-05-06 13:33 41.64003 123.48710 212 ft 17 kts 229°
2026-05-06 13:33 41.63961 123.48646 205 ft 14 kts 229°
2026-05-06 13:33 41.63917 123.48580 206 ft 3 kts 229°
2026-05-06 13:34 41.63896 123.48549 209 ft 3 kts 225°
2026-05-06 13:34 41.63862 123.48550 215 ft 8 kts 147°
2026-05-06 13:34 41.63815 123.48604 211 ft 9 kts 134°
2026-05-06 13:34 41.63779 123.48647 206 ft 3 kts 140°
2026-05-06 13:35 41.63751 123.48680 212 ft 5 kts 139°
2026-05-06 13:35 41.63733 123.48702 210 ft 6 kts 136°
2026-05-06 13:35 41.63703 123.48738 202 ft 7 kts 137°
2026-05-06 13:35 41.63670 123.48779 214 ft 2 kts 137°
2026-05-06 13:36 41.63655 123.48796 208 ft 0 kts 139°
2026-05-06 13:36 41.63647 123.48806 205 ft 0 kts 139°
2026-05-06 13:36 41.63646 123.48807 205 ft 0 kts 139°